sat.trackr.live / text

‹ back to catalog

STARLINK-31931

NORAD 59864 · 2024-098G

PAYLOAD ACTIVE UNKNOWN

§ Identity

Operator
Country
US
Launch date
2024-05-24
Launch site
AFETR
Launch vehicle
Mass (kg)
RCS (m²)

Purposes: comms

External: N2YO · Heavens-Above · Gunter

§ Orbital elements

Epoch: 2026-05-25T04:48:18.251136Z

Period
94.27 min
Inclination
42.9998°
Eccentricity
0.0001148
Mean motion
15.27579382 rev/d
Perigee alt
482.3 km
Apogee alt
483.8 km
Semi-major
6,861.2 km
B*
5.1005e-6
RAAN
206.2323°
Arg perigee
275.5643°
Mean anomaly
84.5077°
Rev number
11,354

§ Raw data

STARLINK-319311 59864U 24098G   26145.20021124 -.00000122  00000+0  51005-5 0  99962 59864  42.9998 206.2323 0001148 275.5643  84.5077 15.27579382113543

JSON: /api/v1/satellites/59864 · /tle

For live sub-satellite position, see the globe view (requires WebGL).

§ Visibility from observer

Set your observer location to see the next 7 days of passes ≥ 10°. The values pass through the URL so the page stays shareable.

No JS? Fill the form by hand. The geolocation button needs JavaScript.